Location: Copeville
(33.0796°N, 96.4155°W)
Time: 20:21:51
(UTC+00:00)

DELTA 2 R/B (1) - Visible Passes

Search period start: 03 July 2022 00:00
Search period end: 13 July 2022 00:00
Orbit: 790 x 802 km, 39.6° (Epoch: 03 July)

Date Brightness Start Highest point End Pass type
(mag) Time Alt. Az. Time Alt. Az. Time Alt. Az.
03 Jul 3.6 02:19:44 10° WNW 02:25:20 84° SSW 02:30:26 13° ESE visible
03 Jul 5.1 04:07:04 10° W 04:11:11 22° SW 04:11:11 22° SW visible
04 Jul 4.9 03:35:54 10° W 03:40:21 25° SW 03:41:41 23° SSW visible
05 Jul 4.9 03:04:44 10° W 03:09:23 27° SW 03:12:14 18° S visible
06 Jul 4.9 02:33:37 10° W 02:38:25 30° SW 02:42:51 12° SSE visible
07 Jul 4.8 02:02:30 10° W 02:07:27 33° SW 02:12:23 10° SSE visible
